SL-14 DEB, 47087

Orbit data source: Space-Track

SL-14 DEB, 47087 is space debris in LEO originally from a launch on Thu, 15 Aug 1991 UTC launched from the Plesetsk Missile And Space Complex (PKMTR). Debris objects in space refer to the collection of defunct objects orbiting the Earth. Examples of debris include non-operational satellites, rocket bodies, and fragments generated from explosions, collisions, or faulty payload assembly.

Loading next visibility...
Identifier
47087, 1991-056DM
Orbit
LEO
Country
Flag of CISCIS
Related business
Manufacturer
Unknown
Mission
Spacecraft
Bus & Motor
Unknown
Mass
Unknown
Launch date (UTC)
1991-08-15 (34 years ago)
Launch vehicle
Unknown
Launch site
Plesetsk Missile And Space Complex (PKMTR)
Object type
Payload
Rocket body
Debris
Shape & HBR
Unknown shape, 0.1 m
Radar Cross Section
Small (<0.1 m²)

Expand to show TLE details & history
Last TLE update: 17 hours ago

TLE from 17 hours ago
0 SL-14 DEB
1 47087U 91056DM  26035.24280050  .00000178  00000-0  38054-3 0  9993
2 47087  82.5975 223.0461 0060884   4.2057 355.9568 13.24530229253985
Epoch: 2026-02-04T05:49Z
TLE epoch observation values (Epoch: 2026-02-04T05:49:37.963Z)
Latitude
-0.00005°
Longitude
1.22573°
Altitude
1,124.452 km
Speed
7.313 km/s
True Right ascension
14h 52m 11s
True Declination
0° 00' 00"
Sunlit
Object was in daylight at epoch
Visualization orbit readout
Latitude
Unknown
Longitude
Unknown
Altitude
Unknown
Speed
Unknown
Apparent Right ascension
Unknown
Apparent Declination
Unknown
Sunlit
N/A
Visualization observer readout
Local Sidereal Time
00:46:57
Azimuth
Unknown
Elevation
Unknown
Doppler factor
Unknown
Orbital elements
Apogee altitude
1,210.622 km
Perigee altitude
1,118.774 km
Semi-major axis
7,542.835 km
Eccentricity
0.00609
Inclination
82.5975°
RAAN
223.0461°
Arg. of periapsis
4.2057°
True anomaly
355.90723°
Mean anomaly
355.9568°
Eccentric anomaly
355.93205°
Mean motion
3.31315 °/min
Orbital period
108.66 mins
BSTAR
0.00038054
Loading maneuver chart data...
Computing Atmospheric mass density...
Loading historical data...
Loading historical data...
Loading historical data...
Loading historical data...
Loading historical data...
Loading historical data...
Loading historical data...

Documentation

Showing up to 5 results
|